Theta_e
315 315 314 314 315 315 315 315 316 318 318 319 319 319 320 321 321 322 322 323 324 324 324 319 311 310 315 313 312 314 314 313 312 311 310 310 311 311 311 311 312 314 314 314 312 310 311 312 313 314 315 315 316 318 317 319 319 321 330 329 321 321 323 320 319 316 318 322 313 311 314 315 315 314 314 316 315 315 315 316 317 318 318 317 318 319 315 313
316 316 313 314 314 314 314 313 313 314 316 318 319 320 321 322 323 323 324 324 326 325 320 313 309 311 312 313 313 312 313 312 310 310 310 310 310 310 311 311 313 315 314 313 311 310 311 312 313 314 316 316 316 317 317 318 317 321 328 326 326 329 320 316 316 312 313 316 312 312 313 314 315 314 314 316 315 314 316 316 315 317 317 317 318 319 317 314
316 315 313 314 314 313 313 313 312 311 311 312 313 315 317 321 323 324 324 325 325 321 314 310 311 312 312 313 311 311 311 310 308 309 310 310 310 310 311 312 314 314 312 311 310 311 312 312 313 315 316 316 316 317 317 317 316 317 320 324 332 327 315 312 313 312 313 314 312 312 312 313 314 314 315 316 314 313 315 316 315 316 317 316 318 318 317 314
316 315 313 313 312 312 313 313 313 310 309 308 308 309 310 314 318 320 322 321 319 314 310 311 311 311 312 311 311 310 309 308 308 310 311 310 310 311 311 313 314 312 311 311 310 311 312 312 314 316 316 315 315 317 316 316 316 315 319 326 324 315 314 314 313 313 313 313 313 313 312 312 313 314 315 314 316 316 315 315 316 316 315 316 317 317 317 315
315 314 312 311 311 313 314 313 312 310 309 308 308 308 307 308 310 312 314 313 312 310 311 311 311 311 311 310 310 309 308 308 310 311 311 310 310 311 312 313 313 311 310 310 311 311 312 313 315 316 315 314 314 316 315 314 315 315 315 317 313 311 315 314 312 314 313 313 313 312 312 313 313 314 314 314 318 319 315 316 316 316 315 315 316 316 317 315
315 314 311 310 312 313 313 313 312 310 309 308 309 308 308 308 308 309 310 310 310 311 311 311 310 311 310 310 309 308 308 310 311 311 311 310 311 312 313 314 313 311 310 311 310 312 313 313 315 315 313 313 314 315 315 313 314 318 314 311 311 311 313 313 312 313 313 314 313 312 313 313 313 313 313 313 316 317 315 316 315 316 316 315 316 316 316 315
313 313 311 310 312 313 312 313 312 310 309 309 309 309 309 309 309 309 310 311 311 311 311 310 310 310 310 309 308 308 309 310 311 312 311 310 311 314 314 313 312 311 311 311 311 313 313 313 314 313 312 313 312 312 313 313 312 319 318 311 311 312 312 313 313 313 313 313 314 313 314 313 313 314 313 312 315 316 315 315 315 315 316 315 316 315 315 315
311 312 310 309 311 311 312 312 311 310 310 309 309 309 309 310 310 310 310 311 310 311 310 310 310 310 309 309 308 309 310 310 311 313 312 310 313 314 314 312 311 311 311 311 311 314 313 313 314 312 313 312 312 313 312 313 313 317 318 311 311 312 312 313 312 312 312 312 313 314 313 312 313 313 311 313 315 315 315 314 314 315 315 315 315 315 315 315
311 311 309 309 309 310 311 311 310 310 310 309 309 309 309 310 310 310 310 310 310 310 310 310 310 309 309 308 308 308 310 309 311 313 312 312 315 314 312 311 311 311 311 311 311 314 313 313 313 313 313 310 312 313 312 314 314 313 314 312 311 311 311 312 312 312 312 313 313 313 313 312 312 312 313 314 314 315 315 314 314 315 316 315 315 315 315 315
311 311 310 310 309 309 310 309 309 311 309 309 309 309 309 309 310 310 310 310 310 310 310 310 309 309 308 308 308 307 310 310 311 313 312 314 315 312 312 311 311 311 311 311 312 313 313 313 313 313 313 312 311 311 311 313 314 312 312 311 312 312 312 312 313 312 313 313 312 314 314 312 311 313 316 316 314 314 315 314 314 315 316 315 315 315 315 315
311 311 310 310 309 308 309 309 309 310 309 309 309 309 309 309 310 309 309 310 309 310 310 309 309 309 308 309 308 308 311 311 311 313 313 314 314 311 312 311 312 312 311 311 312 313 313 313 313 313 314 313 311 311 311 311 312 312 312 313 312 311 312 312 313 313 313 313 312 314 313 312 312 313 316 315 314 315 314 315 314 314 316 316 315 315 315 315
311 310 310 309 309 308 308 308 309 309 309 308 308 309 309 309 310 309 310 310 309 309 309 309 309 309 309 309 308 309 312 313 312 313 314 314 313 311 312 312 312 312 312 312 311 312 313 313 313 313 314 313 313 313 313 312 312 312 313 315 314 313 314 311 311 312 312 314 312 312 314 315 315 315 315 314 314 315 314 315 315 315 315 315 315 315 315 315
311 310 309 309 308 308 308 308 309 309 308 308 309 309 309 309 309 309 310 309 310 309 308 309 309 309 308 308 309 309 312 315 314 313 315 313 311 311 312 312 312 312 313 312 313 313 313 314 313 314 313 313 314 312 313 312 311 313 312 315 317 316 315 311 310 312 312 313 312 311 314 319 319 313 313 313 314 314 314 315 315 315 315 315 315 315 315 315
311 310 309 309 309 307 307 308 308 309 308 308 309 309 309 309 309 310 310 310 310 309 308 308 309 309 308 308 310 309 311 315 315 314 314 312 311 312 311 312 312 312 312 313 313 313 314 315 313 314 313 313 313 312 316 314 314 316 311 316 320 314 316 313 309 311 313 313 312 311 313 319 318 311 311 313 313 313 314 314 315 315 315 315 315 315 315 315
312 311 309 309 308 307 307 308 308 308 308 308 309 309 309 309 309 310 310 310 310 309 308 308 308 309 308 308 310 310 310 313 315 314 313 312 311 311 312 312 312 312 313 313 313 314 315 315 314 314 312 314 313 313 319 318 320 320 311 319 320 312 317 317 308 309 313 313 311 311 314 319 316 311 311 312 312 313 313 314 314 314 314 315 315 315 315 315
312 311 310 310 308 307 307 307 308 308 308 308 309 309 309 309 309 309 310 309 309 308 307 308 308 308 308 308 310 311 311 312 314 313 312 312 311 311 312 311 312 312 313 313 313 314 314 315 314 313 312 313 315 317 321 319 323 322 315 320 320 314 318 317 311 308 310 313 312 311 314 319 317 312 312 312 312 313 313 314 314 313 314 314 315 315 315 315
313 311 310 310 309 307 307 307 308 308 308 308 308 309 309 309 309 309 309 308 308 307 307 308 308 308 308 309 312 312 311 312 313 313 312 311 311 312 311 311 313 313 314 313 313 313 315 314 312 313 313 311 314 318 318 316 319 319 317 319 318 317 317 316 316 309 308 313 314 313 314 318 318 311 312 313 312 313 313 314 314 314 314 314 315 315 315 315
314 312 311 310 309 307 307 307 307 308 308 308 308 308 308 308 308 307 307 307 307 306 308 309 307 309 310 309 311 313 312 311 312 312 312 311 312 312 312 313 313 314 314 313 313 314 314 312 312 317 316 312 313 317 317 318 318 318 317 317 316 315 314 316 319 312 310 314 315 316 315 318 319 312 312 313 312 313 313 314 314 315 315 315 315 315 315 316
315 313 311 310 309 307 307 307 307 308 308 307 308 307 307 306 306 305 305 306 307 307 309 309 308 311 313 309 310 313 312 311 312 312 311 311 312 312 313 313 314 314 313 313 314 313 313 313 313 318 317 314 314 314 318 322 321 319 319 320 321 320 316 316 318 311 309 315 317 318 318 318 320 316 313 313 312 311 312 313 314 314 315 315 315 315 315 315
316 314 311 309 309 307 307 307 307 307 307 307 307 306 306 307 308 308 307 307 308 309 310 309 308 311 312 309 310 313 312 312 312 311 311 312 312 313 314 314 314 315 314 316 317 312 313 316 316 317 316 315 314 314 316 318 317 318 319 322 322 321 318 315 316 310 306 314 318 317 319 318 318 317 312 311 311 309 310 312 314 315 315 314 314 314 315 315
316 315 311 309 309 308 307 307 307 307 307 307 307 307 307 307 309 310 309 309 309 309 310 309 308 311 311 309 311 313 312 312 312 311 312 311 312 314 314 314 315 315 313 313 314 312 314 317 318 318 316 314 313 313 315 315 315 316 318 321 319 317 318 314 314 312 307 312 317 315 318 318 317 318 312 309 310 310 311 312 314 315 315 315 315 314 315 314
316 315 312 309 308 308 307 306 307 307 306 306 306 307 307 307 310 309 308 309 309 310 311 309 308 311 311 310 312 313 311 312 312 312 312 312 314 314 313 314 315 316 313 311 314 314 314 318 319 313 308 309 311 313 317 318 318 319 317 319 320 317 317 314 313 313 310 312 318 317 318 318 317 317 312 308 309 311 312 312 313 314 314 314 315 315 315 315
316 314 311 309 308 308 307 306 306 306 306 306 306 308 307 308 311 309 307 308 308 309 311 309 308 310 311 311 312 312 311 312 312 313 313 313 314 314 313 313 316 317 314 314 317 316 316 318 315 306 305 311 313 313 317 317 318 320 320 320 319 316 317 318 314 313 311 311 315 317 316 317 316 317 315 308 306 309 311 311 312 312 313 314 314 314 314 314
314 312 310 309 308 307 306 306 306 306 307 306 307 308 307 309 311 308 307 308 309 310 311 309 309 310 311 312 312 312 311 311 312 313 313 314 314 313 313 312 315 316 314 315 316 316 316 312 306 304 309 315 314 313 316 317 315 317 325 328 322 320 320 317 314 315 314 311 312 314 315 323 325 325 325 314 305 307 309 310 311 312 312 313 314 314 314 314
312 310 310 309 307 306 306 306 306 306 306 306 307 307 307 309 310 307 308 309 308 310 311 310 310 311 311 312 312 312 311 311 312 313 313 314 314 312 312 311 313 315 315 314 313 315 314 307 305 308 311 315 315 314 318 320 316 314 323 327 324 327 323 317 316 318 319 315 311 310 315 331 335 329 328 321 313 313 309 306 310 313 313 311 313 314 314 314
311 310 310 308 306 307 307 307 306 306 306 306 307 308 307 309 309 307 310 311 310 309 310 311 311 311 312 312 313 311 311 312 312 313 314 314 313 312 312 311 311 314 314 312 312 315 312 306 309 313 314 314 315 315 315 318 318 315 316 317 319 326 324 320 319 316 318 314 308 309 315 323 326 323 322 321 320 320 313 307 308 311 312 311 312 313 313 314
310 309 308 307 307 308 308 307 306 306 307 307 307 308 307 308 308 307 310 310 311 311 310 309 309 310 312 312 312 311 313 314 312 313 314 314 313 311 313 312 311 312 310 311 314 314 310 310 311 314 317 317 315 315 314 316 319 316 314 315 321 326 323 324 323 320 319 313 312 318 318 315 318 318 317 316 318 320 318 315 310 308 312 313 314 314 314 314
309 308 308 308 308 308 308 307 306 306 307 307 307 307 307 308 308 309 311 309 309 310 309 308 308 310 312 312 311 311 312 313 313 313 313 314 313 311 313 313 313 315 309 310 317 313 310 315 314 316 321 317 316 316 313 318 322 316 311 315 320 322 324 328 328 325 317 310 318 324 313 312 321 322 318 313 314 317 319 319 313 308 312 314 314 315 314 314
309 308 308 309 309 309 308 308 307 306 307 307 306 307 307 308 308 309 311 308 308 310 308 308 309 311 312 311 311 310 311 312 313 314 312 313 312 311 313 310 310 314 309 310 320 315 310 313 312 315 320 316 315 313 311 321 323 312 307 313 316 318 322 324 324 323 315 312 324 323 311 311 319 325 324 314 312 318 320 320 313 308 312 315 314 314 313 314
310 309 310 310 309 308 308 308 306 306 308 307 306 308 308 309 310 309 308 309 311 310 306 307 310 311 311 311 310 310 312 312 312 313 312 312 312 310 311 309 309 316 316 316 321 315 309 309 309 311 314 312 311 309 308 313 312 307 312 318 316 320 323 323 323 320 314 319 326 318 312 312 312 323 327 315 313 317 317 320 317 311 313 315 316 316 315 315
313 311 311 311 309 307 308 308 306 307 308 307 308 308 309 311 313 311 307 310 314 310 306 308 309 310 311 311 312 312 313 312 310 312 313 312 312 310 310 311 312 318 320 319 319 314 311 312 311 309 309 308 312 313 308 307 306 310 321 321 315 320 322 323 326 318 313 324 322 312 311 311 310 321 324 316 316 315 312 317 320 315 313 314 315 316 317 316
315 313 313 311 308 307 308 307 306 307 308 309 309 308 310 311 311 311 309 308 312 311 309 310 309 311 312 312 314 314 314 314 310 312 315 314 313 312 312 315 317 317 315 316 318 316 316 316 311 309 309 309 316 319 312 310 313 314 319 320 318 320 318 321 327 319 317 322 313 309 311 310 311 317 316 315 317 313 308 310 314 312 311 314 315 315 316 316
316 316 315 312 310 310 309 307 306 307 308 309 309 309 314 313 309 311 312 310 311 310 311 312 311 311 312 312 314 314 314 314 311 311 313 314 313 312 313 315 318 318 316 318 319 316 318 318 313 313 312 310 314 318 316 315 317 314 314 318 321 320 315 318 321 314 315 318 310 307 311 313 315 313 312 315 311 309 307 307 309 310 311 314 314 315 316 315
315 318 318 314 313 312 310 308 306 306 309 309 308 310 313 313 311 313 313 311 312 311 311 313 311 310 311 312 313 314 314 312 311 313 313 313 313 313 314 311 312 320 320 318 318 317 318 319 317 316 314 312 313 315 318 320 316 313 314 314 317 323 322 319 320 318 318 319 312 308 312 320 320 311 311 312 307 307 309 308 309 310 312 314 313 315 316 315
315 318 319 316 315 314 311 309 306 306 308 308 308 310 309 310 313 314 311 311 314 313 311 311 310 310 312 312 312 312 313 313 311 313 314 313 313 313 314 311 311 319 320 315 315 315 315 316 316 313 309 312 314 312 314 318 316 313 311 311 313 321 324 315 312 316 316 314 314 311 315 322 318 311 311 307 305 306 307 307 310 311 313 314 313 314 313 314
316 317 318 317 317 315 311 309 308 307 308 308 309 310 309 311 315 315 311 311 314 312 310 310 311 312 311 311 312 311 311 314 313 313 313 314 314 312 313 312 311 314 316 316 317 315 313 314 313 312 309 310 312 309 308 312 315 313 311 315 316 314 320 316 307 308 309 310 315 313 315 319 314 313 316 312 310 311 309 309 310 311 313 313 313 312 311 312
317 316 317 317 318 317 314 311 310 309 308 308 309 309 311 313 314 316 314 311 311 310 311 311 311 312 311 310 313 312 312 315 314 313 314 313 313 313 314 313 310 311 312 314 316 317 317 316 312 313 314 309 307 308 307 306 311 316 316 317 312 308 315 318 312 314 314 313 317 314 313 317 314 315 320 316 312 314 315 312 309 310 313 312 312 312 311 312
315 316 316 317 318 318 316 314 312 311 309 308 309 312 316 315 312 314 313 308 309 312 313 314 311 311 311 311 312 312 312 314 313 313 314 312 313 314 314 313 310 309 309 308 312 314 318 318 312 311 314 311 309 311 311 308 307 314 316 312 311 314 317 315 312 318 317 313 319 318 312 311 312 316 321 315 313 319 318 314 312 313 313 312 312 312 312 313
312 313 314 315 316 317 318 316 313 313 311 308 308 311 316 317 311 311 312 310 312 314 312 314 314 311 311 311 312 311 311 313 312 313 314 312 313 312 311 312 312 308 306 308 312 312 314 317 313 310 311 312 313 313 315 315 309 308 309 307 313 322 320 315 313 315 315 313 317 320 317 316 313 316 320 313 315 323 321 319 317 312 311 312 312 312 313 315
311 311 312 313 314 315 316 317 315 316 314 311 309 311 313 316 313 311 312 312 314 314 313 318 316 312 312 311 311 311 312 313 312 313 313 311 311 311 309 311 312 309 306 307 312 313 312 312 311 311 310 312 316 315 315 316 312 310 311 310 314 315 313 314 313 313 317 317 318 317 317 321 319 315 315 313 317 321 319 320 317 308 309 313 312 313 315 315
311 311 312 313 313 312 313 317 316 315 315 313 314 316 315 314 313 312 312 313 314 313 314 319 317 315 314 312 311 311 312 314 312 313 314 311 311 312 310 309 310 310 308 307 312 314 312 311 315 315 313 314 317 314 311 314 313 312 313 313 314 313 313 315 313 311 312 314 318 317 313 318 323 317 314 315 315 313 308 309 311 309 312 315 314 315 316 315
310 310 311 312 313 312 313 316 313 312 315 315 314 317 315 313 312 312 311 313 315 313 313 317 319 318 317 315 313 313 313 314 312 313 315 313 312 313 311 309 308 308 310 311 312 312 311 315 320 319 316 316 314 308 304 309 312 312 312 314 314 313 314 317 317 314 311 309 312 314 313 318 320 312 309 309 307 304 303 304 309 312 314 315 315 315 315 315
309 309 310 312 313 314 314 314 312 312 314 313 312 313 313 312 312 311 312 313 315 316 317 320 319 315 315 316 314 313 312 313 312 313 315 313 311 311 310 309 308 308 310 312 312 309 310 316 318 316 318 318 314 309 305 307 311 312 314 315 314 313 316 322 323 318 315 313 312 312 313 316 315 306 302 303 303 303 305 306 309 313 314 315 315 315 315 315
309 308 309 311 312 314 313 312 312 313 312 311 313 313 312 312 312 312 314 314 315 318 321 320 315 312 314 315 315 314 313 313 312 312 314 314 310 309 308 309 309 308 309 311 312 309 311 316 315 314 317 318 316 316 313 312 312 314 317 315 313 315 316 316 316 313 313 317 316 315 314 314 317 313 307 307 308 307 307 308 310 313 314 315 315 315 315 315
308 308 309 310 310 312 312 310 310 311 310 311 314 314 312 313 312 312 314 313 312 315 318 316 312 313 314 314 315 316 314 314 314 313 313 315 313 309 308 309 308 307 309 311 310 309 312 316 315 313 313 313 314 315 316 315 313 314 317 315 312 315 315 313 315 314 314 316 315 315 314 312 315 317 312 312 315 313 310 310 312 313 314 314 314 314 314 314
308 308 309 309 309 310 310 310 309 309 310 312 313 313 314 314 313 311 312 313 312 312 313 313 311 314 316 316 317 318 315 314 315 314 315 318 316 311 308 309 308 307 309 310 308 311 317 316 313 312 312 312 312 314 317 319 316 314 316 316 313 313 313 314 318 316 314 314 313 313 313 312 314 315 314 315 317 318 314 311 312 313 312 312 313 313 313 313
307 308 308 308 309 309 309 309 310 309 309 312 313 312 313 314 314 312 312 312 312 312 313 313 312 316 318 317 318 318 316 316 316 316 317 317 315 312 308 309 309 308 310 310 307 312 319 315 312 313 313 311 311 315 318 318 318 316 316 315 314 313 313 314 315 314 312 313 313 313 312 312 312 314 317 319 319 318 313 309 311 312 311 312 313 312 312 312
306 306 306 307 308 309 309 309 309 310 310 311 312 312 312 313 314 314 312 311 311 312 314 314 314 316 318 317 318 318 316 316 316 315 315 314 314 314 311 310 309 308 310 309 308 313 318 315 313 313 312 312 313 316 317 316 316 316 315 315 314 312 313 313 313 313 313 313 313 313 313 313 311 312 316 316 313 313 312 310 311 311 310 312 312 311 313 312
303 303 303 305 306 306 307 309 309 310 311 310 311 311 312 313 313 313 313 312 312 312 314 316 315 315 317 317 318 318 316 317 317 316 315 315 315 315 316 315 311 307 309 312 310 311 315 318 317 313 311 313 314 316 317 316 315 315 314 315 314 312 312 312 312 312 313 313 313 313 314 314 311 311 313 311 309 310 310 310 310 310 311 312 311 312 312 312
302 302 302 303 304 303 305 309 309 310 310 310 310 311 311 312 313 313 312 313 314 313 312 314 315 314 315 316 317 318 316 316 319 318 315 316 316 316 317 317 314 310 311 314 313 310 311 316 317 314 313 315 316 315 316 316 315 315 315 314 313 312 311 311 312 312 312 312 313 312 313 313 310 309 310 309 308 308 309 309 310 311 311 311 311 312 312 312
301 301 301 303 304 303 305 308 309 309 310 309 309 310 311 311 311 312 313 312 313 314 313 313 314 313 313 313 314 315 314 314 318 317 315 316 316 316 316 314 313 314 315 314 315 314 311 313 315 315 316 316 315 314 314 312 311 313 315 315 314 312 311 311 311 312 312 312 313 313 313 312 311 309 308 308 307 306 308 310 310 311 311 311 312 312 312 313
300 301 301 302 304 304 304 307 309 310 310 309 309 309 310 310 310 311 313 312 311 313 313 312 312 313 313 312 311 311 311 312 313 312 313 314 314 313 313 311 312 315 316 314 315 315 313 316 318 317 317 316 313 312 313 312 313 314 314 314 313 312 311 311 311 311 311 312 313 313 312 312 313 312 312 312 309 307 308 310 311 311 311 311 312 312 312 312
Wind_Speed
21 21 23 23 22 23 22 22 23 25 25 26 27 28 28 27 26 24 24 25 24 22 20 20 20 19 18 20 21 20 19 19 19 19 21 20 16 15 12 12 12 11 12 13 11 12 12 12 12 12 11 10 8 10 9 7 7 4 3 3 2 4 4 6 7 8 4 3 7 11 17 12 5 9 10 6 5 6 11 12 9 13 14 9 5 5 14 20
23 22 23 23 23 23 22 20 22 24 24 25 26 27 27 26 25 24 25 25 23 21 20 21 21 21 21 22 21 20 20 19 18 20 21 17 14 15 13 12 13 11 12 12 12 12 12 13 14 13 12 10 7 9 9 6 6 4 3 3 3 6 5 6 9 10 3 2 9 12 15 12 7 11 12 5 4 6 8 9 9 12 15 12 9 8 13 19
24 23 25 24 22 22 20 18 20 22 23 24 24 25 25 25 25 25 26 25 24 22 21 22 22 22 22 21 20 18 19 16 16 21 19 16 15 14 14 14 13 11 12 12 12 12 12 12 14 13 12 9 6 9 8 5 4 2 3 2 5 6 4 4 7 9 5 3 10 12 12 10 7 12 12 6 4 5 8 10 10 13 16 14 12 10 14 19
24 23 26 25 21 20 19 17 18 20 20 22 22 23 24 24 25 26 27 26 25 23 23 23 21 21 21 20 19 17 14 9 14 21 18 16 15 14 15 16 14 11 12 13 13 12 11 11 13 13 11 7 6 9 6 4 4 2 4 3 5 4 2 3 4 6 7 5 10 13 9 7 8 12 12 8 5 4 12 17 16 14 15 14 14 12 15 20
24 22 23 24 21 19 18 17 18 19 20 21 22 22 23 23 24 25 26 26 25 24 23 22 21 20 20 19 17 15 10 2 10 20 17 16 16 14 16 16 14 12 13 14 14 13 11 11 14 13 8 4 5 6 4 4 5 3 2 2 3 4 2 2 2 3 7 7 10 12 9 8 10 10 12 12 8 6 11 16 17 15 13 13 14 14 16 20
24 21 21 23 21 19 19 18 18 20 21 22 22 22 22 22 24 25 26 26 25 24 23 21 20 20 19 18 16 15 13 3 4 15 17 16 17 15 16 16 15 13 14 15 15 14 12 13 14 11 6 4 4 4 4 6 5 3 1 2 4 3 2 2 1 2 6 9 13 13 9 10 10 7 10 16 15 11 6 7 12 15 14 13 14 15 17 20
23 21 20 22 21 20 20 19 19 21 21 22 22 22 22 22 23 24 25 24 23 23 22 21 20 20 18 17 16 15 18 10 3 10 17 16 18 17 16 16 15 15 15 16 16 15 13 15 15 11 7 4 4 4 5 7 4 3 1 1 4 1 1 2 1 3 5 10 13 12 10 8 9 6 6 16 23 17 8 4 5 11 15 15 15 15 16 17
22 20 19 19 20 21 21 20 21 21 22 23 23 22 22 23 23 23 24 23 22 21 21 21 19 19 18 17 17 13 18 17 6 8 17 17 18 17 16 16 16 15 16 16 16 16 14 15 15 11 5 3 5 6 7 6 2 3 3 3 4 2 2 3 3 5 5 7 10 10 7 5 8 6 4 15 21 18 15 11 6 8 14 17 16 16 16 17
20 20 18 16 19 22 22 22 22 21 22 24 24 24 23 23 23 23 23 22 21 20 20 19 18 18 17 17 15 9 15 20 9 8 17 18 17 16 15 15 16 16 15 16 17 16 13 14 16 10 4 5 8 7 8 6 1 2 5 6 5 3 3 4 4 6 6 6 8 7 3 1 5 3 7 16 17 16 17 16 12 9 12 17 18 17 17 18
20 20 19 16 18 22 24 24 23 22 24 25 25 25 24 23 23 23 22 22 21 20 19 18 18 17 17 17 13 6 12 19 11 9 17 18 16 15 15 15 15 15 15 16 17 16 13 13 15 10 5 7 9 6 7 5 2 6 11 9 6 4 3 3 4 5 6 6 5 6 2 0 4 2 6 9 9 13 16 16 17 13 12 15 18 18 18 18
20 20 19 18 18 20 24 25 25 25 26 26 26 25 25 24 23 23 22 21 20 19 18 18 17 17 17 17 13 7 10 15 11 10 16 17 15 14 14 14 14 14 14 16 17 16 13 11 14 11 4 6 8 6 5 4 4 11 15 9 6 4 4 3 3 4 4 4 2 4 2 1 3 3 7 5 3 7 13 16 17 17 14 13 16 18 19 19
19 21 20 18 17 19 23 25 25 25 25 25 26 26 25 25 24 22 21 20 19 18 18 17 17 16 15 15 16 13 9 11 10 10 15 17 15 14 14 14 13 13 12 13 14 13 12 10 12 9 4 8 8 4 5 6 9 10 9 4 5 7 4 4 2 1 2 2 2 4 0 4 4 6 8 6 4 4 9 14 17 18 16 13 15 17 18 19
19 20 20 19 18 20 23 24 23 23 23 24 26 26 25 24 23 22 20 19 18 17 17 16 16 16 14 11 16 18 11 9 10 10 15 17 15 15 14 13 12 11 11 11 11 11 11 10 11 9 9 11 6 6 9 8 9 5 4 4 2 6 4 4 3 0 2 2 2 4 1 6 8 10 7 5 6 5 9 13 16 19 19 17 16 17 18 18
18 19 21 21 20 21 23 23 23 23 22 24 25 25 24 23 22 21 19 18 17 16 16 16 16 16 14 10 11 16 14 9 9 12 16 17 16 16 14 12 11 10 10 10 10 11 11 10 11 10 10 10 10 12 8 6 5 2 2 2 2 1 4 6 4 1 4 1 1 5 2 6 8 7 5 8 9 7 9 11 13 17 19 20 19 19 19 19
18 19 21 21 21 21 22 23 24 24 23 25 26 25 23 22 21 20 19 17 17 16 16 16 17 15 11 10 8 12 16 12 9 14 17 17 16 15 14 11 9 9 9 10 11 11 10 9 10 9 10 12 15 11 4 4 4 4 2 2 3 3 5 7 3 1 3 2 1 5 2 6 8 6 3 4 9 10 12 12 12 15 18 20 21 21 22 21
17 19 21 22 22 22 23 24 24 24 24 25 26 25 23 21 20 19 18 17 16 16 16 16 17 14 6 7 9 10 15 14 10 14 18 17 16 15 13 11 8 9 9 10 11 11 11 10 10 11 10 10 9 6 5 3 3 4 3 2 2 3 3 4 2 3 1 2 1 2 2 3 4 4 2 4 1 5 10 13 13 15 17 19 20 21 22 22
17 19 21 22 23 23 25 25 24 25 25 24 24 24 23 21 20 19 18 17 16 15 15 14 16 13 5 6 9 9 14 16 12 15 17 16 15 13 12 11 9 9 9 11 11 12 12 10 10 8 6 4 3 5 5 0 3 2 3 2 3 3 2 2 2 4 4 2 1 2 2 6 6 7 5 3 4 6 9 11 11 11 13 14 16 19 20 21
17 19 21 23 23 24 25 24 24 25 25 23 22 23 22 20 19 18 18 17 17 15 12 12 14 9 7 10 10 9 14 16 14 16 17 15 13 12 11 10 10 11 12 12 10 10 9 6 7 4 3 3 2 5 5 5 5 5 2 2 2 3 3 3 3 3 4 3 2 1 3 9 10 11 15 14 10 11 14 14 14 13 13 14 15 17 18 19
18 18 21 23 24 25 25 24 24 24 25 23 22 23 21 19 18 17 19 20 17 11 5 13 18 6 3 12 13 10 14 15 15 17 17 15 13 12 11 10 13 14 13 8 4 6 6 5 5 4 2 4 5 6 6 7 8 9 6 5 4 3 4 5 4 4 1 3 2 4 5 8 10 10 16 18 12 11 16 16 18 18 18 18 19 20 20 21
18 18 21 23 24 25 24 24 24 24 26 24 25 26 20 18 12 9 18 20 14 5 1 15 24 6 3 11 18 13 14 15 16 18 18 15 14 12 11 12 13 11 7 5 3 3 5 4 3 5 7 8 7 6 6 5 7 8 6 5 4 3 2 3 3 5 1 3 3 3 3 8 10 10 15 20 13 11 17 19 20 21 21 23 23 24 25 25
19 18 20 23 25 25 23 25 25 26 27 25 29 26 19 21 11 6 17 13 9 5 1 15 26 10 3 9 18 16 15 14 15 19 18 16 15 12 10 11 9 4 1 3 5 3 4 5 6 7 7 7 6 7 7 6 7 6 6 5 2 1 2 2 2 4 3 1 2 2 4 8 11 10 15 18 10 10 18 19 21 22 22 25 25 26 27 27
20 19 21 23 25 25 25 27 26 29 28 27 33 24 19 25 14 14 21 8 8 8 1 14 24 12 1 8 16 16 14 9 10 17 17 17 17 11 9 7 5 3 0 3 6 3 3 4 8 6 7 9 7 6 8 7 7 5 4 6 3 2 2 3 3 5 5 1 3 4 5 9 11 9 14 18 14 16 20 20 22 24 25 28 28 28 28 29
20 20 22 24 26 26 27 29 29 31 30 30 32 21 21 25 12 17 21 6 7 8 2 13 21 14 6 9 15 15 12 7 8 16 17 18 17 11 11 7 5 5 2 3 6 5 4 5 6 9 11 10 6 4 9 8 5 4 4 5 3 2 1 1 2 5 4 2 1 2 4 8 8 7 10 14 14 16 18 19 22 24 27 31 30 30 30 31
21 22 24 26 28 29 29 30 30 32 30 30 29 21 22 22 13 19 16 4 4 4 3 12 16 16 11 10 15 13 10 7 9 17 18 18 16 11 10 8 6 5 3 4 7 7 4 4 3 11 8 8 7 3 7 7 3 1 3 6 4 3 4 3 1 2 3 4 3 3 4 6 5 5 7 6 5 9 10 12 16 19 21 24 25 26 26 27
21 23 26 28 30 30 30 30 31 33 31 31 29 22 22 20 16 20 10 5 2 1 3 9 9 12 12 11 15 12 9 7 9 17 19 18 16 10 7 7 6 4 3 4 7 5 3 1 6 9 4 6 8 4 5 7 4 1 3 6 6 7 6 2 2 4 4 4 4 5 3 5 5 5 7 5 6 8 8 9 17 19 17 18 20 21 21 21
22 26 29 31 31 31 28 26 30 33 31 32 29 20 21 21 19 18 7 5 1 1 4 8 6 10 12 11 15 13 7 3 8 18 20 17 15 10 7 4 3 3 5 5 5 2 1 2 4 6 6 6 7 5 6 6 6 2 4 5 6 7 8 6 5 4 1 1 2 3 2 4 7 5 8 6 8 11 10 9 16 19 17 17 18 19 20 20
25 28 30 31 31 31 27 23 29 34 29 31 28 19 19 22 20 15 5 5 2 3 6 7 6 10 12 13 17 12 4 5 9 14 18 16 13 9 7 4 3 3 4 4 3 1 2 4 4 5 6 6 6 5 5 6 8 3 3 6 8 8 8 7 6 4 2 3 4 4 4 2 5 6 6 6 7 10 11 9 13 15 14 12 13 16 16 17
25 27 29 30 30 30 26 23 29 33 28 28 28 20 18 22 20 11 4 2 2 4 6 5 6 10 14 17 17 9 6 11 9 8 15 16 11 7 4 5 5 4 2 5 4 2 2 4 5 5 6 4 4 3 4 8 6 3 3 6 7 7 7 5 6 4 1 1 4 5 2 1 6 7 5 5 4 9 10 9 10 12 12 9 6 8 9 9
24 28 29 27 27 27 24 22 28 31 26 26 28 21 18 21 16 5 3 2 2 4 4 7 8 9 13 14 9 5 8 7 4 8 15 13 9 5 3 5 8 7 4 4 5 2 2 2 5 5 5 4 2 2 1 3 3 4 6 7 7 6 6 5 5 4 2 2 4 5 2 0 5 7 4 2 2 7 8 8 8 9 11 11 8 3 2 3
22 25 26 25 26 27 23 21 27 28 22 24 26 21 20 19 10 4 2 3 2 2 2 6 7 8 12 9 2 2 4 2 4 12 12 8 7 6 8 8 8 8 5 7 4 1 1 1 1 3 3 5 5 4 4 3 5 10 7 7 7 7 6 4 3 4 4 2 6 6 2 0 3 7 4 3 4 6 4 5 7 8 11 12 11 10 9 11
20 21 22 23 26 26 23 22 27 26 22 23 23 22 20 11 3 3 5 2 3 2 2 2 3 7 13 9 3 1 2 3 4 11 7 4 6 6 8 7 4 5 3 4 3 4 4 3 1 1 2 6 7 6 7 6 6 7 4 5 5 4 5 5 5 4 2 4 6 4 3 1 3 6 4 4 6 6 4 5 7 7 10 10 10 10 10 12
21 20 19 21 24 24 22 24 27 27 24 23 24 24 16 5 1 5 3 2 3 3 4 4 3 6 9 6 4 3 3 2 2 5 5 3 4 4 4 4 4 4 0 3 1 3 3 1 2 1 2 4 6 5 5 4 4 5 5 6 5 2 3 3 3 1 2 5 4 2 1 2 5 8 8 10 10 6 7 8 8 9 12 11 8 7 9 11
24 21 18 19 20 22 22 23 28 29 26 26 25 19 9 3 7 6 3 2 2 1 4 4 1 5 9 6 4 3 3 2 2 2 2 3 4 3 1 2 6 5 3 4 3 1 1 4 3 2 1 4 4 5 4 2 0 4 5 5 4 3 2 2 4 2 4 4 3 3 2 2 5 6 9 14 11 6 7 10 11 12 14 14 9 5 7 8
26 22 20 20 18 20 22 23 29 30 27 27 22 10 5 5 6 3 4 4 1 2 2 4 6 6 6 5 4 4 3 1 2 3 2 3 5 5 4 3 3 5 4 3 3 5 3 4 3 3 2 4 4 3 6 6 3 2 3 5 5 5 4 4 4 3 4 3 3 3 1 3 3 2 6 11 13 12 11 13 15 15 14 13 10 4 1 2
24 20 21 22 20 20 21 24 30 30 29 26 14 5 7 8 3 3 6 5 1 2 3 3 8 8 3 2 0 4 2 1 2 4 4 4 5 7 6 5 4 4 6 5 2 3 3 4 4 2 1 5 4 2 4 6 3 1 2 5 3 4 5 3 3 5 3 1 2 2 3 5 4 5 9 8 10 12 10 10 11 10 8 8 9 6 2 1
26 23 22 22 21 20 21 26 29 30 31 21 8 6 8 4 3 4 5 5 4 6 7 4 4 5 3 1 1 5 0 2 3 3 3 3 3 5 5 4 6 5 5 6 3 2 3 2 4 4 2 3 1 1 2 3 3 2 2 3 4 4 7 5 2 0 3 0 3 1 4 6 4 6 9 6 7 9 7 6 6 6 7 7 7 5 4 3
30 28 26 25 22 20 21 26 27 31 30 16 6 7 4 1 4 4 2 5 7 9 10 6 2 4 6 4 5 6 2 3 4 3 3 2 2 5 5 3 5 8 6 4 3 3 5 2 3 2 2 3 2 4 6 5 3 4 3 5 4 3 5 4 2 3 4 2 4 1 4 5 2 4 7 7 5 9 7 6 5 6 7 6 5 7 5 3
24 26 27 27 25 21 21 23 25 29 23 10 6 5 1 1 2 2 2 4 8 7 5 5 3 3 6 7 6 7 6 4 5 4 4 3 4 5 8 4 4 9 9 4 2 2 5 3 3 2 2 3 4 4 4 5 4 4 5 4 4 3 2 2 2 1 1 2 4 4 4 3 4 5 4 3 4 7 8 7 5 7 8 4 6 7 4 4
16 18 18 22 24 22 22 22 23 23 14 7 7 5 1 2 1 1 3 3 5 5 4 5 2 1 5 6 6 6 6 6 8 6 4 4 4 5 8 6 3 9 12 7 3 2 4 3 2 2 1 2 3 2 4 1 4 4 4 3 3 3 4 2 2 4 3 2 3 4 4 3 6 6 5 7 7 6 7 6 6 10 9 4 6 5 8 10
15 10 7 14 20 19 21 22 20 15 7 5 6 4 0 2 1 1 4 4 2 3 3 4 3 3 4 3 3 5 4 5 8 6 4 5 4 4 6 6 4 7 9 6 3 2 3 2 3 2 3 1 1 3 6 7 3 3 4 3 1 2 3 2 1 2 4 4 2 2 4 5 6 4 7 10 9 8 8 6 7 8 6 1 3 9 14 15
14 6 3 13 16 14 19 19 11 7 4 2 3 2 1 2 3 2 4 5 3 3 3 4 4 4 5 3 2 4 4 4 6 5 3 5 5 3 5 6 8 9 6 4 3 4 2 3 4 2 0 3 4 3 3 6 6 6 5 6 6 4 4 3 2 1 2 3 4 3 4 8 6 4 7 8 7 6 6 5 4 4 5 5 8 13 16 17
11 4 4 12 15 17 18 10 3 2 3 2 3 3 3 4 3 2 3 4 4 3 3 4 3 2 3 3 2 4 6 4 5 5 3 5 5 3 3 5 11 16 10 3 2 3 3 4 4 2 3 5 4 3 1 2 2 3 3 4 5 4 5 6 5 3 1 1 2 4 2 8 5 3 5 6 7 6 5 5 3 5 9 10 12 15 16 17
11 4 6 12 16 20 16 3 1 3 1 2 3 5 5 4 2 2 1 2 2 2 3 2 1 2 2 2 3 6 6 4 5 5 2 3 3 1 2 7 12 15 10 3 2 3 3 4 4 0 3 3 4 4 3 2 2 1 2 2 5 3 3 5 5 4 4 3 3 3 2 7 6 3 3 7 9 6 5 6 3 5 9 11 13 14 15 14
14 8 7 12 16 19 12 2 2 4 2 2 3 3 3 3 2 3 2 1 1 2 2 1 1 1 2 2 3 5 5 3 4 4 2 2 3 1 2 7 11 9 6 3 5 8 5 2 4 3 2 3 4 4 3 2 1 3 3 2 4 4 6 4 2 3 1 5 7 5 5 6 5 5 4 5 6 2 4 6 5 5 8 11 12 12 11 9
13 7 6 10 14 13 6 2 3 4 3 4 4 3 3 2 1 4 4 2 2 3 3 2 1 3 2 2 4 2 1 2 2 3 2 0 1 1 2 5 10 7 2 1 7 12 8 2 5 6 5 6 6 4 4 3 3 2 2 3 5 6 8 5 2 3 3 5 7 6 7 6 3 6 5 4 3 1 4 6 7 9 9 9 8 7 5 4
8 4 3 6 10 11 5 4 8 5 3 4 4 3 5 2 0 3 5 3 1 3 4 2 2 4 3 2 4 2 1 2 2 3 3 2 2 1 3 3 6 6 3 4 9 11 4 1 5 8 9 11 9 5 4 7 6 5 5 7 7 8 10 7 4 4 7 4 4 7 11 9 6 4 4 5 4 4 5 8 11 12 8 4 2 2 4 5
5 2 3 3 5 8 6 6 9 6 4 6 3 3 6 4 2 2 3 2 3 4 3 3 2 3 2 4 4 2 2 2 3 2 3 2 2 1 3 4 3 4 4 5 7 7 4 2 7 8 10 9 5 5 5 7 9 11 10 11 10 10 11 9 8 12 9 3 5 11 9 10 12 7 6 9 6 5 7 12 14 11 6 6 6 8 10 11
2 2 6 5 3 4 4 7 9 7 7 7 3 3 7 6 4 4 3 1 3 5 2 2 1 3 5 6 4 3 3 2 1 2 2 1 1 2 2 3 4 2 3 4 4 5 4 4 5 5 9 8 2 4 5 6 7 8 10 12 13 12 13 14 16 17 11 7 13 13 10 12 18 10 9 12 9 9 14 16 14 9 9 10 9 9 10 10
3 2 4 6 3 2 4 10 11 7 8 8 4 3 7 8 6 4 3 3 2 3 4 3 3 5 6 5 5 4 5 4 2 3 2 3 3 3 2 1 1 2 3 3 2 3 3 3 2 4 6 8 4 4 5 7 6 5 7 11 12 14 16 18 19 20 15 12 16 13 8 13 17 8 10 15 15 16 17 15 13 13 13 10 9 9 11 13
3 2 3 4 4 3 6 11 11 7 6 8 5 4 6 9 8 4 3 5 4 3 4 5 5 7 7 6 5 4 6 7 5 4 5 4 3 3 2 3 3 2 3 2 1 1 4 3 1 4 2 6 4 5 5 6 7 6 7 8 9 12 15 17 17 16 11 10 14 14 11 14 12 6 10 15 16 15 15 15 17 19 17 14 14 17 18 18
3 4 4 4 3 2 3 6 7 6 4 6 6 5 6 9 10 6 3 5 7 6 8 9 6 6 6 5 6 6 7 7 7 6 9 8 4 5 4 4 6 4 2 1 2 2 3 2 2 4 3 5 2 6 5 3 2 3 7 8 11 12 12 12 12 11 10 12 14 13 12 14 8 7 9 12 11 13 15 19 22 23 22 20 20 21 21 18
5 4 4 3 2 1 2 2 5 6 4 5 6 5 5 7 8 8 4 4 8 10 12 13 9 5 4 6 10 14 14 11 6 5 7 7 4 3 3 6 9 8 4 3 2 2 3 3 2 3 4 3 2 5 7 6 4 4 9 13 16 13 10 8 8 11 14 13 11 10 13 14 6 7 8 7 9 13 18 21 23 24 22 20 20 20 19 16
Wind_Direction
187 195 196 189 190 195 196 195 193 194 194 194 194 193 192 193 195 197 200 202 204 204 201 202 200 198 206 207 208 213 220 228 231 233 232 228 222 219 220 215 211 208 204 204 207 206 198 190 179 165 158 151 148 160 149 145 148 117 102 99 152 178 200 186 178 187 165 197 198 183 182 177 190 182 174 173 181 196 190 194 205 205 210 217 218 202 192 194
192 199 197 190 193 195 193 193 192 193 195 196 196 195 194 193 194 197 203 207 206 206 204 199 194 193 198 203 209 214 221 228 232 235 229 221 219 217 218 209 205 206 201 203 203 199 197 189 175 161 155 147 142 162 158 145 138 113 99 110 205 198 200 189 176 185 171 164 181 178 183 187 198 179 172 181 184 181 191 207 214 212 215 218 214 201 196 197
196 203 198 192 194 192 189 190 189 191 192 194 195 196 196 195 197 200 205 210 208 206 201 194 191 192 197 205 211 214 219 227 238 236 222 213 216 213 212 204 199 201 198 199 195 193 197 188 171 160 154 144 140 162 160 144 149 119 106 123 239 214 202 196 182 191 199 168 163 170 183 191 197 178 177 190 178 185 207 209 208 213 215 214 208 201 197 198
200 207 202 196 191 186 186 188 187 187 188 188 189 190 192 194 198 202 207 209 204 199 194 190 190 193 199 206 209 211 214 229 245 233 215 209 212 207 207 202 197 199 194 190 187 189 192 182 170 162 151 132 131 157 157 147 167 153 133 177 234 195 154 191 195 202 206 187 166 166 169 187 188 178 185 174 147 243 234 216 213 218 214 206 204 201 196 198
203 210 207 197 186 183 185 186 185 183 182 183 181 182 184 188 193 197 200 199 194 190 189 189 191 195 201 203 204 202 194 209 248 226 213 208 205 202 203 199 199 197 188 185 185 185 184 179 169 159 146 118 121 144 157 147 144 138 165 250 200 151 107 171 191 193 200 187 166 160 158 180 177 180 195 180 173 231 237 226 224 228 221 211 210 204 195 198
206 210 207 195 184 185 184 181 183 179 178 179 177 177 178 182 185 187 189 187 186 186 187 189 191 196 198 198 198 191 183 174 253 212 208 206 199 197 196 196 200 194 186 185 182 179 177 173 166 156 133 103 130 134 148 156 145 148 278 303 170 155 80 129 175 174 184 176 167 166 170 174 168 189 207 202 216 226 239 245 232 230 224 219 216 209 202 202
210 210 206 196 188 184 181 181 182 178 175 177 175 174 176 178 180 182 183 182 184 186 187 190 192 195 194 194 195 192 200 221 284 201 199 199 195 192 191 196 197 191 187 185 182 178 175 173 167 154 123 95 143 132 130 150 137 126 167 255 172 185 54 87 101 160 170 178 174 170 174 172 175 193 211 220 231 232 239 262 243 231 221 217 217 215 216 213
211 210 205 201 193 182 181 184 181 176 175 176 174 173 175 177 180 182 182 183 186 186 188 191 191 192 190 194 196 196 211 225 262 207 192 190 191 190 192 195 193 191 189 187 183 177 175 175 169 154 127 113 151 141 131 137 87 100 156 184 152 122 115 89 80 141 153 168 169 166 168 184 193 200 237 238 239 235 234 240 256 239 219 218 219 220 222 220
210 208 202 201 198 186 182 184 180 177 177 175 173 174 176 178 182 183 183 185 186 188 190 191 192 190 190 196 197 201 218 220 241 216 189 186 189 191 194 193 191 191 189 188 185 180 179 177 175 166 150 151 140 136 141 143 235 166 145 154 140 94 110 112 98 120 132 145 157 164 151 174 192 221 265 252 250 241 234 235 243 247 228 221 223 226 225 224
206 207 202 200 202 193 185 182 181 180 177 175 174 175 177 180 183 183 184 185 187 189 190 192 193 190 191 196 191 200 220 217 233 221 190 186 190 191 192 190 188 189 189 189 184 185 184 179 181 170 141 149 134 125 145 147 207 151 127 112 99 80 91 119 124 113 119 126 146 171 168 207 164 184 258 258 258 238 231 232 233 240 239 227 224 227 227 229
204 208 206 200 202 199 190 185 185 183 178 174 174 176 178 181 183 183 184 186 187 189 190 193 193 191 193 195 191 200 215 212 224 216 193 189 190 189 187 186 185 184 187 187 185 189 189 182 179 168 139 152 138 114 133 135 129 133 125 98 36 39 69 66 114 120 111 110 113 152 168 305 131 184 238 246 274 230 223 228 230 232 236 231 224 225 227 231
204 207 205 199 198 199 194 190 189 185 180 175 175 177 179 182 183 182 183 185 187 189 190 191 191 192 193 200 207 210 216 214 218 210 194 191 188 184 180 180 179 178 181 182 183 188 189 183 178 177 152 147 142 109 129 130 123 122 117 108 355 7 23 9 46 109 101 98 104 114 59 292 224 225 235 230 244 234 221 225 228 230 232 232 225 224 227 232
204 205 202 197 196 197 194 191 191 189 183 177 177 179 180 183 182 180 182 185 188 188 189 189 189 191 190 204 217 215 221 221 218 207 193 190 186 182 178 175 172 170 172 174 175 176 176 178 183 178 147 143 136 119 130 112 112 114 76 112 28 9 348 326 358 26 132 109 137 129 234 278 256 246 238 227 233 233 227 226 229 231 232 233 230 228 229 232
203 205 201 196 196 196 194 191 191 191 186 181 180 180 181 183 181 179 180 184 186 187 186 185 184 186 193 211 222 218 221 223 217 203 192 189 185 182 179 174 171 168 167 167 169 167 161 164 175 161 136 136 127 119 110 58 73 91 53 69 58 128 263 305 342 132 141 161 174 127 186 264 270 279 258 235 233 228 229 223 227 233 233 235 235 235 237 238
202 204 200 198 197 194 194 192 190 190 188 184 181 179 181 182 180 177 178 182 183 184 183 182 180 181 197 221 224 217 216 220 217 197 190 189 187 184 181 175 172 170 167 165 167 167 156 156 160 136 115 126 126 115 63 22 39 41 100 309 343 168 255 310 347 63 146 184 112 116 209 268 269 291 342 246 232 232 242 241 241 243 240 238 238 239 243 246
203 202 201 201 197 194 195 192 190 190 190 188 181 176 179 181 179 176 177 180 179 180 179 179 182 179 188 219 214 214 209 211 210 194 189 188 188 187 182 180 175 171 167 165 167 166 159 149 133 115 113 127 125 103 62 51 1 7 108 198 269 179 261 311 347 348 64 147 31 96 220 273 280 269 51 60 250 238 256 264 261 255 249 244 243 245 248 251
203 201 203 203 198 196 195 192 190 189 191 190 181 174 175 177 176 174 175 176 175 174 175 178 181 186 219 222 208 211 202 203 202 192 187 185 188 189 185 182 172 169 165 160 163 160 153 141 127 118 102 103 104 98 94 94 259 310 54 116 229 198 212 275 286 332 25 116 249 25 247 250 274 274 262 297 320 300 288 284 279 267 257 250 248 250 251 254
207 203 204 202 199 197 195 193 190 188 190 190 180 172 172 174 174 171 171 170 164 159 167 176 171 180 239 223 206 203 196 197 195 188 184 182 184 184 185 180 168 164 152 146 153 150 141 120 117 123 54 67 132 123 144 207 192 184 171 149 225 226 218 248 244 289 17 76 210 347 289 263 277 287 280 279 284 287 285 285 283 275 265 258 254 253 252 253
213 209 206 202 199 197 196 194 189 185 186 186 178 169 166 165 163 163 165 162 156 150 167 182 172 157 261 206 196 193 189 187 186 182 180 178 177 178 179 172 167 160 144 133 146 144 127 96 100 127 133 160 189 170 172 191 168 168 173 147 157 182 231 246 251 277 0 109 230 243 251 275 285 289 288 285 282 279 280 279 276 272 268 264 259 257 255 256
220 216 208 202 198 195 195 192 187 183 183 185 175 164 157 152 141 150 166 165 164 154 140 183 181 182 3 183 184 182 175 174 178 177 176 178 175 169 162 157 158 151 139 139 152 138 114 122 162 180 184 186 189 161 139 144 134 136 129 114 144 167 245 255 266 305 3 148 242 251 259 279 277 276 280 281 284 277 274 273 272 269 265 263 260 260 260 259
225 223 211 203 197 193 191 188 186 182 181 184 175 166 162 159 147 164 169 171 186 181 78 180 185 200 354 172 176 170 161 162 173 175 174 177 171 165 158 151 143 125 134 128 115 104 112 156 210 207 185 168 152 129 108 99 92 103 130 131 132 185 238 261 261 315 357 180 250 4 331 279 268 271 273 277 280 264 262 261 264 265 262 261 261 261 262 262
227 226 213 203 195 189 188 185 184 181 178 182 178 173 171 170 170 176 168 164 193 192 262 182 186 201 238 167 171 164 156 147 167 176 174 172 170 171 165 143 124 132 214 107 105 97 130 208 230 194 142 112 95 96 96 92 90 89 117 130 143 204 244 287 299 330 0 334 270 353 345 282 269 269 269 268 261 258 262 258 260 264 262 261 260 260 262 264
227 221 209 202 192 186 185 183 184 181 180 184 182 176 173 174 176 173 165 138 171 185 215 179 187 196 173 164 171 167 160 142 163 176 174 173 170 168 160 137 113 133 154 159 143 141 171 254 235 161 136 115 92 79 95 89 83 94 111 131 170 235 160 229 288 330 1 54 279 324 318 285 286 293 278 269 262 264 267 262 260 259 259 261 262 263 264 265
224 210 201 196 189 183 181 181 182 181 182 185 183 182 176 174 171 166 157 83 145 178 183 177 186 192 180 167 174 175 166 152 165 174 175 175 168 158 157 141 117 129 162 169 147 150 194 277 157 137 135 128 120 109 118 113 79 84 141 139 160 196 175 195 276 343 357 22 30 17 331 295 312 323 290 289 300 281 277 276 269 260 258 263 265 265 264 264
217 200 192 191 184 177 176 180 182 181 183 183 182 185 180 174 166 163 148 55 137 177 173 179 183 188 186 176 176 174 161 153 162 172 175 176 167 150 143 137 130 157 177 136 128 152 222 296 127 127 112 122 129 158 172 145 119 244 209 174 172 170 158 147 66 63 36 2 355 26 359 291 316 314 273 305 345 305 299 296 276 270 268 268 269 269 268 268
202 191 187 186 179 173 174 181 182 181 182 182 180 180 180 175 164 164 143 44 211 226 159 177 178 182 187 177 168 158 151 168 168 173 175 175 172 153 137 128 95 155 171 137 127 158 200 72 104 123 128 127 132 172 198 149 121 184 224 169 147 129 123 126 110 86 90 238 322 43 121 264 310 297 268 311 334 307 307 293 278 283 288 284 282 280 279 277
190 187 183 179 174 172 176 180 182 180 181 183 180 173 176 175 166 165 129 36 261 181 144 171 175 178 182 168 162 155 154 168 154 170 175 173 178 161 153 170 85 131 171 135 131 217 121 97 71 92 108 118 141 185 206 148 128 192 216 127 122 117 126 136 107 93 200 232 329 11 110 221 293 270 272 327 332 308 306 294 293 308 313 305 292 283 281 278
181 177 172 172 172 174 177 180 182 181 181 183 179 172 171 171 169 163 116 66 211 142 136 173 164 169 171 163 165 154 137 148 140 171 176 170 177 159 156 193 144 135 147 126 170 250 87 141 169 132 104 129 174 222 192 132 111 230 187 114 117 117 122 119 94 93 339 339 308 319 48 176 268 274 305 347 321 291 294 289 296 320 339 348 320 284 281 274
169 166 165 169 171 173 177 181 183 181 181 181 178 173 165 167 168 139 93 169 165 102 127 158 153 164 161 154 161 132 126 143 126 159 165 162 170 147 121 162 134 111 57 81 155 210 47 162 189 142 127 169 185 327 162 105 83 172 142 95 82 76 81 81 85 103 45 17 248 269 353 170 264 286 314 2 264 257 274 281 284 317 357 21 29 32 62 95
160 162 164 168 171 174 178 178 179 180 178 177 177 171 161 162 157 114 167 210 143 81 110 150 162 165 152 138 92 69 113 93 105 135 146 148 149 121 106 122 115 102 41 35 88 213 340 72 106 99 127 161 130 65 40 53 124 141 116 73 64 37 36 51 54 82 60 325 254 258 305 77 267 283 261 204 219 219 249 294 295 335 13 30 41 59 84 94
158 162 163 170 175 176 176 175 178 176 170 171 173 166 156 147 109 144 190 196 111 90 84 139 176 156 154 151 135 133 83 37 124 137 137 128 125 115 111 116 94 80 37 28 47 334 5 67 48 51 121 129 108 63 42 57 106 113 87 87 82 8 12 24 2 40 87 257 261 271 296 160 215 264 253 242 256 227 211 259 273 313 349 9 32 55 80 92
161 163 164 172 177 176 176 177 177 170 164 165 166 161 150 116 183 191 182 129 141 181 165 174 215 168 160 139 117 149 111 79 164 141 140 139 139 152 144 158 148 98 136 192 134 349 29 62 315 8 175 163 118 77 46 9 24 72 96 103 90 13 14 0 319 353 215 241 267 274 255 209 230 251 259 264 267 236 217 236 249 279 314 339 5 43 75 90
164 163 167 173 174 174 177 179 174 168 163 161 160 154 125 116 202 195 166 172 195 198 147 136 126 152 150 130 134 163 102 109 193 134 116 124 144 190 225 173 144 119 181 182 124 98 345 311 314 81 235 220 154 122 138 253 309 123 135 126 124 118 88 270 266 288 261 256 292 281 249 263 267 261 249 251 257 247 240 252 262 274 295 315 329 27 75 85
166 167 172 172 171 172 176 178 174 170 166 161 157 141 120 182 198 147 153 206 262 36 75 107 112 128 144 140 177 177 93 69 174 116 94 106 138 195 226 221 151 99 114 141 142 164 173 275 234 158 203 193 175 167 154 145 132 163 158 123 140 153 148 207 219 207 239 274 307 297 264 200 210 267 240 241 262 274 264 262 267 270 282 301 308 322 85 97
168 173 170 166 168 170 170 174 174 174 172 164 151 146 181 195 200 137 165 193 220 66 44 80 120 133 149 58 196 202 124 121 164 112 141 163 169 192 191 194 191 128 130 156 198 170 158 243 257 308 274 151 163 225 132 110 109 229 126 104 154 184 138 135 179 176 175 332 304 265 243 216 207 281 275 261 274 278 268 265 268 259 256 274 288 304 313 300
175 177 170 166 169 168 166 170 173 176 174 164 147 188 199 193 184 183 163 146 150 134 111 91 97 129 161 80 204 231 324 99 148 132 172 197 208 200 190 191 187 175 161 153 167 165 145 250 307 352 24 74 97 226 90 109 169 161 121 163 210 167 111 111 191 42 78 231 271 229 253 287 325 297 293 304 288 284 286 278 262 235 223 247 281 332 26 41
179 174 170 172 172 169 167 168 171 175 174 166 172 199 198 106 172 181 130 125 141 138 132 142 160 149 163 170 193 202 176 113 152 166 179 202 235 193 189 228 192 184 187 146 160 197 152 156 325 30 92 6 19 93 63 43 106 120 170 201 187 121 93 110 166 7 44 240 277 285 245 286 333 273 314 352 300 275 279 272 265 248 232 247 314 360 24 67
173 168 171 178 176 169 168 169 170 172 171 170 197 200 127 97 178 159 141 136 133 135 144 160 165 151 167 180 185 180 175 167 169 174 167 191 244 190 169 199 194 188 195 150 112 194 134 127 317 26 128 307 356 91 79 18 44 116 172 161 118 136 154 94 137 165 132 237 278 303 282 262 201 227 303 344 242 245 257 267 275 252 235 260 343 6 43 103
159 160 168 180 179 171 168 169 169 167 166 184 202 205 145 138 184 140 152 147 121 127 164 178 157 118 171 173 164 168 181 177 168 177 176 183 234 204 173 180 184 193 192 157 127 186 123 125 242 319 296 300 10 106 184 235 28 60 106 107 80 127 160 156 148 165 173 199 256 311 324 265 224 216 214 220 225 225 235 253 255 236 230 291 351 54 105 112
151 147 150 172 179 177 169 166 166 166 178 201 188 189 154 133 160 110 126 146 118 94 167 190 151 137 163 164 152 164 176 169 166 181 200 183 197 225 200 187 156 175 178 134 118 165 113 137 201 311 337 222 194 219 190 171 138 103 116 148 172 74 108 156 106 116 142 161 195 281 300 270 247 210 198 215 226 215 210 228 244 234 223 282 44 104 113 112
151 138 151 170 176 178 167 161 165 173 181 176 144 150 190 149 150 110 101 122 105 70 127 148 137 146 152 146 170 170 151 149 170 184 208 194 192 212 213 191 156 151 142 101 136 168 139 154 164 137 255 199 222 257 201 175 165 159 172 184 178 150 122 151 241 273 113 149 171 177 265 267 247 209 203 212 229 233 223 226 230 192 153 133 114 113 114 113
158 138 171 172 176 177 168 159 151 137 134 154 145 134 140 137 134 129 104 99 88 71 87 100 107 132 146 146 154 159 149 149 179 189 199 200 191 179 191 178 158 156 151 130 162 161 115 110 121 150 213 213 244 281 238 198 132 133 187 191 171 161 135 148 207 228 125 162 159 119 269 270 260 218 211 236 277 286 245 221 193 134 132 127 119 120 121 118
180 165 163 170 178 178 171 152 97 134 119 166 132 101 118 130 112 126 142 87 78 62 64 96 138 127 157 165 144 162 166 161 181 189 191 192 182 162 174 166 159 158 155 142 154 145 112 105 122 150 303 308 324 341 14 38 80 136 241 177 160 182 148 146 179 174 158 190 150 101 271 268 282 319 270 270 290 289 227 206 175 139 139 132 127 126 126 124
177 171 171 182 187 180 170 155 157 149 123 129 115 89 109 117 112 134 144 126 130 109 99 141 183 129 151 128 125 169 183 174 190 191 172 184 176 115 133 167 168 164 161 177 173 170 179 157 132 123 10 344 340 342 330 314 194 200 228 189 163 131 101 105 127 111 190 215 164 153 241 254 283 322 326 311 311 286 204 188 168 159 148 138 135 131 129 133
160 162 174 189 196 189 169 130 140 132 126 133 129 140 130 78 82 151 136 106 115 125 122 143 125 104 108 88 87 110 125 111 172 173 137 141 219 43 47 175 185 182 176 170 157 163 178 188 147 154 177 197 206 217 218 203 177 202 205 175 175 146 136 157 135 114 237 227 156 177 237 242 303 328 321 318 320 190 183 180 170 163 154 147 141 138 146 157
151 161 157 168 192 197 191 161 146 133 151 151 132 163 158 123 61 156 136 111 91 100 92 98 124 97 81 108 103 104 109 55 65 137 142 164 225 333 33 124 180 187 158 138 153 153 145 216 189 189 203 206 200 197 167 129 142 205 201 171 179 181 174 166 125 169 216 201 159 219 236 240 263 295 279 260 231 199 193 189 186 181 177 187 187 211 272 289
151 175 164 135 169 187 191 180 164 150 165 167 150 165 164 144 115 149 152 161 174 151 90 49 128 127 144 151 126 136 166 72 64 120 131 164 211 314 32 81 114 168 152 139 158 143 101 224 210 204 223 224 185 178 182 145 166 200 193 178 185 188 179 175 193 216 208 157 235 236 219 240 250 224 217 242 228 215 225 206 194 194 212 255 275 283 289 291
151 145 168 162 157 183 192 182 174 166 164 167 157 149 162 161 152 160 166 130 154 167 126 35 198 174 162 160 143 141 147 96 85 162 129 150 157 42 31 45 53 115 142 130 155 137 125 215 212 192 229 240 161 153 195 177 184 201 190 187 189 183 181 191 211 223 202 180 241 235 178 219 246 220 202 228 213 207 224 212 202 220 255 268 274 275 274 279
138 94 152 165 152 165 164 154 157 162 163 164 161 156 169 177 175 157 125 112 145 198 184 179 202 183 163 154 134 139 166 166 173 185 153 145 148 107 86 94 52 55 96 115 153 140 145 214 195 158 230 250 207 165 187 183 189 213 202 194 190 186 192 200 213 224 216 209 241 247 202 229 249 220 199 228 226 223 230 225 226 249 262 260 256 261 276 292
131 106 132 140 107 97 137 145 152 163 165 166 179 191 180 182 181 164 131 150 159 178 191 189 178 168 172 172 161 182 202 176 152 178 174 146 148 173 162 173 172 80 57 103 143 154 174 204 111 120 219 264 214 164 179 187 191 216 225 210 197 196 204 213 219 225 225 228 247 257 255 258 257 195 195 229 230 226 235 241 246 253 257 261 270 281 291 295
137 100 106 122 96 92 141 148 154 161 170 179 187 188 187 192 184 160 157 199 177 158 180 189 169 158 172 181 189 216 216 175 136 148 169 162 160 186 190 175 159 134 82 125 117 103 167 191 66 102 189 258 226 150 158 134 115 243 253 231 208 203 209 218 221 218 213 221 238 248 254 260 249 161 185 221 211 203 221 235 243 251 258 268 277 281 281 279
177 117 97 105 88 144 157 139 158 170 185 188 181 175 183 189 174 153 159 232 202 182 188 187 164 140 158 186 206 218 219 210 189 173 179 170 143 144 153 150 151 148 142 145 131 107 137 140 107 136 185 263 342 129 131 96 82 251 247 225 212 210 210 214 230 232 220 213 220 228 236 249 235 153 178 208 193 201 218 227 239 251 257 263 267 268 271 268